{"data":{"norad_id":59728,"intl_designator":"2024-089A","name":"SHIYAN-23 (SY-23)","alt_names":[],"object_type":"PAYLOAD","status":"ACTIVE","operator":null,"country":"PRC","launch_date":"2024-05-11","launch_site_code":"JSC","launch_vehicle":null,"mission":null,"orbit_class":"UNKNOWN","rcs_meters":null,"size_class":null,"mass_kg":null,"dimensions":null,"purposes":[],"wikipedia_slug":null,"has_3d_model":false,"image_url":null,"decayed_at":null,"tle_current":{"epoch":"2026-09-22T16:45:27.180000Z","epoch_age_seconds":82848,"freshness":"FRESH","line1":"1 59728U 24089A   26265.69823125  .00000294  00000+0  38669-4 0  9991","line2":"2 59728  97.7825 265.5115 0002766 217.2662 142.8362 14.87148146128330","mean_motion":14.87148146,"eccentricity":0.0002766,"inclination_deg":97.7825,"raan_deg":265.5115,"arg_perigee_deg":217.2662,"mean_anomaly_deg":142.8362,"bstar":3.8669e-5,"rev_number":12833,"period_min":96.829626817825,"perigee_km":604.9192894678,"apogee_km":608.78338501596,"semimajor_km":6984.9883372419,"source":"CELESTRAK","updated_at":"2026-09-23T09:00:19.535098Z"}}}